Location: Unspecified
(42.7170°S, 0.0000°E)
Time: 07:28:39
(UTC+00:00)

N. Korean satellite - Visible Passes

Search period start: 16 October 2019 00:00
Search period end: 26 October 2019 00:00
Orbit: 455 x 508 km, 97.2° (Epoch: 15 October)

Date Brightness Start Highest point End Pass type
(mag) Time Alt. Az. Time Alt. Az. Time Alt. Az.
16 Oct 10.6 03:49:13 10° E 03:50:16 11° ESE 03:51:19 10° SE visible
18 Oct 9.0 04:29:20 10° NE 04:32:41 31° ESE 04:36:04 10° S visible
18 Oct 10.1 19:02:28 10° SSW 19:04:42 16° WSW 19:06:54 10° WNW visible
19 Oct 10.1 04:05:07 10° ENE 04:07:35 17° ESE 04:10:04 10° SSE visible
22 Oct 9.4 04:21:47 10° NE 04:24:57 26° ESE 04:28:06 10° SSE visible
23 Oct 10.3 03:57:52 10° E 03:59:52 14° ESE 04:01:52 10° SSE visible
25 Oct 10.5 19:12:50 10° SW 19:14:12 12° WSW 19:15:34 10° W visible
